Wind_Speed
7 8 8 9 10 11 10 9 9 7 7 7 10 11 11 10 12 13 12 10 10 7 3 2 2 3 3 3 4 4 4 2 1 6 9 10 10 12 14 15 17 16 13 13 14 16 20 21 21
6 7 8 8 8 9 11 11 10 9 7 8 8 10 10 10 9 9 9 9 8 8 7 4 3 4 3 4 3 2 1 1 1 2 4 5 7 8 10 13 12 13 13 11 11 11 15 14 15
7 9 9 10 9 10 11 12 13 11 11 11 10 9 9 10 9 9 9 8 7 7 6 6 5 3 6 6 4 4 4 3 3 3 3 4 5 7 7 9 10 12 12 12 10 10 11 12 14
9 11 12 11 12 11 11 10 11 13 13 11 11 11 10 10 10 11 11 10 9 8 7 7 6 6 5 5 7 7 7 7 7 7 6 7 6 6 7 8 9 11 12 11 11 11 13 14 15
12 14 14 13 12 13 10 10 11 13 14 13 10 9 8 10 11 12 12 12 12 11 10 9 8 7 7 7 5 6 8 10 10 10 10 10 10 9 9 9 9 10 12 12 13 13 13 14 15
14 16 15 14 11 12 11 13 13 14 14 16 15 12 9 8 8 9 9 11 12 12 13 12 11 10 10 9 8 9 8 9 10 12 13 14 14 13 13 12 12 12 12 13 13 14 15 16 16
15 17 16 13 9 10 11 15 16 17 18 18 18 17 14 11 11 10 11 12 13 13 14 14 14 14 13 13 13 12 11 12 12 12 13 13 16 18 18 17 18 17 16 16 16 16 16 17 18
19 19 16 15 12 11 13 16 18 21 21 19 21 20 18 15 13 13 13 12 13 12 12 13 14 16 16 16 16 16 16 16 16 15 15 15 16 18 20 21 22 21 22 21 21 20 20 20 20
21 20 17 16 14 15 16 18 19 20 20 20 18 20 18 16 15 16 17 16 15 15 15 15 14 15 16 17 18 19 20 21 21 21 20 18 18 19 19 20 22 24 25 25 24 24 24 23 23
23 21 19 18 18 19 19 20 21 20 18 21 22 19 17 17 16 15 15 17 18 17 17 18 18 18 18 19 19 21 22 23 24 25 25 25 23 23 23 23 24 24 24 26 27 27 27 27 27
22 19 19 21 21 22 22 24 23 23 21 21 21 25 23 20 20 18 17 18 18 19 20 21 22 23 22 22 22 23 23 24 25 27 28 28 28 28 29 28 28 28 28 27 27 27 27 28 28
18 19 21 25 24 24 24 24 24 26 27 28 25 23 25 27 26 25 21 19 19 21 23 23 25 26 27 27 28 27 27 28 27 28 28 29 30 30 32 33 33 32 32 32 32 31 30 31 30
18 24 25 26 28 27 26 26 26 28 29 29 30 28 25 25 26 27 27 26 24 22 22 24 26 27 29 29 30 32 31 31 31 30 30 30 31 31 32 33 34 36 37 37 37 37 36 35 34
25 25 26 27 29 27 28 28 27 29 29 28 27 27 29 29 28 29 30 31 31 30 27 26 27 28 29 31 32 33 33 33 33 34 34 33 33 34 35 35 35 36 37 40 41 41 41 40 40
29 27 26 28 28 31 30 28 29 30 30 29 29 31 31 30 30 31 30 30 30 30 29 27 26 29 30 31 33 34 35 35 35 35 36 37 37 37 38 39 39 40 40 38 39 41 43 45 45
30 29 29 31 30 31 32 26 27 32 31 32 33 33 33 33 32 32 31 30 29 28 27 29 31 30 29 32 34 34 36 37 38 38 38 38 38 40 41 42 43 45 46 44 43 43 42 43 44
31 32 28 27 29 33 34 28 26 30 34 35 37 37 34 32 31 31 30 30 33 33 31 29 29 32 33 32 32 34 37 37 38 39 40 41 41 41 41 43 45 47 49 50 49 49 49 48 48
33 33 33 29 29 35 37 35 34 33 35 36 35 34 32 32 34 34 33 32 33 32 32 31 27 28 31 34 35 35 36 40 41 39 40 41 42 42 42 42 45 46 49 51 54 53 54 54 54
38 37 37 32 34 36 37 39 37 38 34 33 33 32 31 31 33 37 38 37 37 35 34 34 33 34 32 32 34 36 40 40 42 44 45 44 44 44 45 44 44 45 48 49 51 53 55 56 56
40 40 37 37 36 38 37 36 32 34 37 35 33 33 35 36 35 36 36 37 38 39 39 40 40 37 38 38 37 38 40 43 45 47 48 50 51 50 49 49 49 49 50 51 52 54 55 56 56
38 35 35 37 33 37 41 42 35 35 37 36 35 37 38 39 40 40 39 39 39 40 41 43 44 45 44 43 44 44 45 45 46 48 50 52 52 53 54 53 51 50 51 53 53 53 52 54 57
37 35 37 38 41 43 43 46 44 37 37 37 39 39 39 40 41 41 41 42 41 40 40 41 42 45 47 47 47 48 48 49 50 50 52 53 55 56 56 56 56 57 56 55 55 56 57 56 55
35 36 37 40 42 46 44 43 45 43 39 40 42 42 40 40 41 42 48 51 52 52 50 50 50 51 52 52 52 51 52 54 55 55 56 57 57 59 60 62 62 62 63 65 65 64 63 61 59
38 37 41 45 45 48 38 42 53 47 44 45 44 44 41 44 50 56 58 54 54 54 53 53 53 53 53 53 54 53 57 59 60 61 62 64 65 64 64 65 69 70 68 67 70 72 73 73 74
43 45 45 48 46 47 44 47 49 45 46 47 46 47 52 58 61 59 58 56 56 57 56 55 55 56 56 59 58 59 62 63 65 68 71 71 73 73 73 73 72 73 76 77 76 74 74 75 77
45 45 46 46 47 45 47 53 53 55 55 55 55 58 62 64 64 60 59 59 58 56 56 56 58 59 60 62 63 64 65 67 67 70 73 74 76 76 76 76 76 76 76 78 81 83 84 83 81
41 43 42 46 48 52 55 58 56 56 55 57 59 61 61 59 59 58 58 58 59 58 58 59 63 62 64 65 68 71 73 73 73 73 76 82 80 80 79 80 81 82 83 82 83 84 84 86 88
43 45 49 52 53 57 57 57 57 53 53 53 55 57 58 59 60 61 59 58 60 62 64 66 67 68 69 69 72 74 75 74 77 78 81 83 84 84 84 85 88 88 88 89 90 88 87 87 88
46 47 48 48 53 56 57 58 56 54 55 57 58 59 61 62 62 62 63 63 64 65 66 68 70 70 71 72 73 75 77 78 79 79 80 84 89 90 91 90 89 91 91 93 96 94 93 87 84
46 45 47 51 54 56 60 61 60 58 59 59 59 61 62 65 66 68 69 69 69 68 68 68 69 71 74 76 78 79 81 82 83 85 87 88 90 92 93 93 93 93 93 94 97 96 96 97 91
Wind_Direction
54 30 16 4 356 360 352 345 351 5 10 9 5 14 16 22 20 17 22 26 30 24 342 330 350 351 352 24 55 79 88 87 275 267 270 278 280 274 274 276 275 279 278 271 271 256 248 252 260
15 7 357 347 347 342 340 336 337 343 347 351 354 355 356 6 6 1 4 9 14 25 20 360 276 281 299 319 331 352 35 94 156 224 250 257 268 269 272 275 280 282 283 279 264 259 253 244 244
346 344 338 331 327 333 332 333 337 343 342 341 341 341 338 329 327 326 329 332 344 350 358 4 353 302 264 261 266 275 269 265 265 254 254 263 265 268 263 260 262 269 272 274 267 258 254 245 242
332 329 324 327 325 329 328 333 337 336 337 340 342 343 335 328 322 316 313 308 309 314 320 324 333 335 324 281 268 263 268 269 262 262 264 265 264 269 274 274 267 261 262 264 265 262 260 254 250
329 325 324 327 323 325 325 324 329 339 337 334 339 344 340 342 338 335 331 320 311 304 299 301 307 311 317 318 313 279 267 261 262 261 262 260 260 259 263 270 273 272 267 259 259 259 261 262 263
323 319 320 322 326 319 315 311 319 328 325 319 317 320 327 345 342 338 333 321 309 300 293 288 285 285 288 296 299 298 291 277 268 265 260 260 260 255 256 257 258 257 258 259 256 252 252 252 257
316 310 311 312 310 303 292 303 309 316 313 303 298 298 304 317 318 317 311 306 304 301 294 288 285 281 279 279 282 285 286 282 282 279 275 265 261 261 257 255 256 258 256 256 254 253 251 251 249
311 304 303 298 299 297 292 299 304 314 311 309 304 300 302 301 297 293 296 300 301 306 308 298 293 287 281 277 273 271 273 276 277 275 272 271 268 264 260 258 258 256 257 257 257 257 255 253 250
307 298 294 290 296 296 301 302 305 309 309 311 309 312 316 312 303 299 298 300 301 303 303 301 298 295 288 277 271 269 268 269 269 269 270 272 271 269 267 263 259 257 256 256 259 260 260 259 257
301 293 288 285 286 291 298 304 307 307 303 305 307 307 310 319 318 307 297 292 288 285 283 285 288 290 292 288 283 278 271 265 264 266 265 261 261 264 266 265 265 262 259 258 257 255 256 259 261
296 288 285 284 283 287 295 301 308 303 304 298 303 308 312 313 315 311 304 295 286 282 276 275 275 277 272 268 271 272 273 271 269 265 262 262 262 260 261 262 261 263 264 261 259 258 258 257 257
286 286 287 286 283 284 289 296 306 302 301 303 304 306 309 308 308 307 302 294 287 282 279 277 275 270 266 269 269 266 266 266 266 265 265 262 260 259 259 259 261 261 261 262 263 261 259 259 259
279 286 285 285 286 290 293 296 299 299 298 302 303 304 304 305 301 297 298 297 289 284 280 280 277 274 272 266 264 265 266 269 272 270 268 266 264 260 260 260 259 259 260 260 260 262 262 263 263
280 278 276 276 279 282 285 289 293 291 293 298 300 305 308 303 298 295 297 297 298 297 292 282 275 276 273 269 266 263 262 263 267 273 274 272 269 266 263 262 261 259 259 261 261 261 261 261 262
284 282 281 278 281 283 282 287 289 289 292 294 297 301 302 301 292 292 293 295 295 293 292 289 284 277 275 272 267 266 267 263 259 259 263 267 269 269 267 265 263 263 261 259 260 261 262 262 261
281 281 281 286 288 286 287 286 292 289 293 292 294 298 300 297 292 289 291 296 295 292 289 286 286 283 277 273 270 266 263 263 263 262 260 259 262 266 268 268 267 266 266 263 261 260 259 259 260
283 286 286 285 287 287 285 286 280 285 288 289 291 295 294 292 287 285 287 289 290 292 291 285 279 278 280 278 271 268 267 262 261 263 264 263 262 260 259 260 262 265 266 267 265 262 262 261 260
283 285 284 285 281 279 284 286 283 282 283 288 290 291 292 291 290 288 286 287 288 287 288 287 281 274 274 274 274 274 267 266 267 263 261 263 265 265 262 260 259 259 261 264 266 267 265 264 264
283 282 281 283 279 283 285 290 295 294 298 293 293 291 286 281 278 281 284 284 283 282 283 281 279 282 277 273 274 274 272 269 264 265 266 265 263 262 265 267 263 260 260 260 260 262 265 266 265
279 278 282 281 281 284 287 287 288 293 293 292 291 288 287 285 284 283 282 280 278 278 279 280 282 280 278 278 275 271 268 269 269 267 265 265 267 269 268 267 266 265 262 262 260 259 259 261 264
274 278 279 279 279 281 288 287 291 292 287 286 287 289 292 293 293 291 289 286 283 281 280 277 277 277 278 278 278 275 273 270 265 265 267 267 267 266 266 268 267 263 261 261 261 259 257 257 258
280 280 282 286 289 291 289 291 293 290 289 290 288 288 285 286 288 290 292 290 282 277 275 274 276 275 273 271 271 270 267 267 266 262 261 261 264 266 267 266 263 262 260 256 257 260 259 257 254
279 280 280 280 283 285 286 291 292 286 287 284 283 283 283 280 279 287 292 289 284 282 279 274 267 269 269 269 266 265 263 264 264 262 261 262 262 260 260 263 266 265 260 257 255 254 256 257 260
275 275 278 280 281 281 289 284 290 292 290 291 289 289 286 285 289 292 291 285 281 278 276 276 276 276 274 269 269 267 266 265 264 264 264 264 265 266 266 262 260 262 264 263 261 260 258 261 261
274 276 278 277 279 281 281 283 289 291 294 295 291 285 287 292 292 291 288 284 280 276 276 277 276 276 274 272 271 269 268 266 266 266 265 267 269 270 271 271 267 264 262 264 266 265 263 262 261
276 276 275 278 275 278 283 287 296 295 295 294 288 287 290 290 289 287 285 284 282 282 281 279 277 274 273 273 274 271 271 273 270 269 271 272 274 273 274 275 274 272 268 266 265 266 268 266 265
277 279 281 277 281 283 287 287 288 288 288 287 285 285 285 284 283 281 279 277 278 280 278 274 274 272 272 269 269 271 273 274 272 272 268 272 276 276 275 274 275 274 272 270 269 269 267 266 267
278 279 276 279 280 279 283 285 287 288 286 283 282 281 281 280 279 279 278 277 275 274 272 272 272 272 273 272 272 274 272 274 272 273 274 277 278 278 278 279 278 277 274 273 273 272 270 268 267
276 276 279 278 277 280 284 283 284 284 285 284 281 279 277 275 275 275 273 273 272 272 273 274 276 277 279 281 282 282 282 282 282 280 276 273 275 278 279 278 277 278 278 277 277 274 270 268 268
280 280 281 278 281 278 275 283 285 288 286 283 281 277 276 274 274 273 273 273 275 277 278 280 281 282 283 284 284 285 284 284 283 282 281 281 281 281 280 279 278 276 274 272 272 272 271 269 268
Height
5878 5878 5877 5876 5877 5873 5873 5873 5870 5869 5868 5867 5865 5865 5865 5864 5862 5864 5861 5860 5859 5858 5858 5858 5858 5858 5858 5857 5857 5856 5856 5857 5858 5858 5859 5860 5861 5862 5863 5863 5864 5864 5865 5865 5866 5867 5868 5870 5871
5879 5879 5878 5876 5876 5873 5873 5872 5871 5869 5868 5867 5866 5865 5864 5864 5863 5862 5862 5861 5860 5859 5858 5857 5857 5858 5858 5858 5858 5858 5858 5858 5858 5859 5859 5860 5860 5861 5861 5862 5862 5862 5863 5863 5864 5865 5866 5867 5869
5880 5878 5878 5877 5875 5874 5873 5871 5869 5868 5868 5867 5867 5866 5864 5864 5863 5862 5861 5861 5860 5859 5859 5858 5857 5857 5857 5858 5858 5859 5859 5859 5859 5859 5859 5860 5860 5860 5860 5860 5860 5861 5861 5862 5862 5863 5864 5865 5866
5878 5878 5877 5876 5874 5874 5873 5872 5870 5869 5867 5866 5866 5865 5864 5863 5862 5861 5861 5860 5860 5860 5859 5859 5858 5857 5856 5856 5856 5857 5858 5858 5859 5859 5859 5859 5859 5859 5859 5859 5859 5859 5859 5860 5860 5861 5862 5863 5864
5877 5876 5876 5875 5874 5873 5872 5871 5870 5869 5866 5865 5864 5864 5863 5862 5861 5861 5861 5860 5859 5859 5858 5858 5858 5857 5857 5856 5855 5855 5856 5856 5857 5857 5857 5858 5858 5858 5858 5858 5858 5858 5858 5858 5859 5859 5860 5860 5861
5876 5875 5874 5874 5874 5872 5871 5869 5869 5868 5866 5864 5863 5862 5862 5862 5861 5860 5859 5858 5858 5857 5857 5856 5856 5856 5856 5856 5855 5855 5855 5854 5854 5854 5855 5855 5855 5855 5855 5855 5855 5855 5855 5856 5856 5856 5857 5858 5858
5875 5873 5872 5871 5871 5871 5869 5868 5866 5866 5865 5863 5861 5861 5861 5862 5861 5859 5858 5856 5855 5855 5854 5855 5854 5854 5854 5855 5854 5854 5853 5853 5853 5852 5852 5852 5852 5852 5852 5852 5852 5852 5853 5853 5853 5853 5854 5854 5855
5872 5871 5870 5868 5868 5868 5867 5866 5865 5863 5861 5860 5858 5858 5860 5860 5859 5857 5856 5855 5853 5853 5852 5852 5852 5851 5852 5852 5852 5852 5851 5851 5850 5850 5849 5849 5849 5848 5848 5849 5848 5849 5848 5849 5849 5850 5850 5850 5850
5869 5868 5867 5866 5865 5865 5864 5864 5863 5861 5858 5857 5856 5855 5857 5857 5856 5855 5855 5854 5853 5852 5851 5850 5849 5849 5848 5848 5847 5847 5848 5848 5848 5847 5847 5847 5847 5846 5846 5846 5845 5845 5845 5845 5845 5845 5846 5846 5846
5865 5864 5864 5863 5863 5862 5862 5861 5860 5859 5857 5854 5852 5853 5853 5854 5853 5852 5851 5851 5850 5850 5848 5847 5846 5846 5846 5844 5844 5843 5843 5843 5843 5843 5843 5843 5843 5842 5842 5841 5840 5840 5840 5840 5840 5840 5840 5840 5841
5862 5861 5860 5859 5860 5859 5859 5857 5857 5854 5853 5852 5852 5849 5850 5851 5851 5850 5849 5847 5846 5845 5844 5843 5842 5842 5840 5840 5839 5838 5837 5837 5837 5836 5836 5837 5838 5838 5837 5837 5836 5836 5836 5835 5835 5835 5835 5835 5835
5859 5857 5856 5854 5855 5855 5855 5854 5853 5850 5848 5846 5849 5850 5849 5846 5845 5844 5843 5842 5841 5840 5839 5839 5838 5836 5836 5835 5834 5833 5832 5831 5831 5831 5831 5831 5831 5831 5831 5831 5831 5831 5831 5831 5830 5830 5830 5829 5830
5855 5853 5852 5850 5849 5851 5851 5850 5849 5846 5843 5844 5843 5844 5844 5842 5841 5838 5836 5835 5835 5835 5834 5833 5832 5831 5830 5829 5829 5828 5827 5827 5826 5826 5825 5825 5825 5824 5824 5824 5824 5824 5825 5824 5824 5825 5825 5825 5825
5850 5850 5848 5847 5846 5846 5846 5846 5846 5842 5840 5839 5839 5838 5837 5836 5835 5834 5832 5831 5829 5828 5828 5827 5825 5824 5824 5823 5821 5821 5821 5821 5820 5820 5820 5819 5819 5818 5818 5817 5816 5816 5816 5816 5817 5817 5817 5817 5817
5843 5844 5843 5842 5843 5840 5841 5842 5840 5836 5836 5834 5833 5832 5831 5830 5828 5827 5826 5825 5824 5823 5822 5820 5819 5818 5817 5816 5815 5814 5814 5813 5812 5812 5812 5812 5812 5811 5810 5810 5809 5808 5807 5808 5808 5808 5808 5808 5808
5836 5837 5838 5836 5835 5834 5833 5838 5836 5831 5830 5828 5827 5827 5826 5823 5821 5820 5819 5817 5816 5815 5815 5815 5813 5811 5810 5810 5809 5808 5807 5805 5804 5803 5802 5803 5803 5803 5802 5802 5800 5799 5798 5799 5800 5798 5798 5798 5798
5828 5827 5830 5830 5828 5825 5823 5828 5829 5825 5822 5822 5821 5821 5820 5818 5816 5814 5813 5812 5810 5808 5806 5805 5805 5805 5804 5802 5801 5802 5800 5797 5797 5796 5795 5794 5793 5792 5792 5791 5791 5790 5789 5788 5789 5789 5788 5787 5787
5821 5820 5820 5823 5823 5818 5816 5817 5817 5820 5818 5817 5815 5813 5811 5810 5808 5807 5805 5804 5803 5802 5800 5798 5797 5796 5796 5795 5793 5792 5792 5792 5789 5787 5786 5785 5783 5782 5782 5782 5781 5781 5779 5780 5778 5777 5777 5777 5777
5813 5812 5811 5814 5812 5809 5810 5808 5810 5808 5807 5805 5806 5805 5803 5802 5801 5801 5799 5797 5794 5792 5792 5792 5790 5790 5788 5786 5786 5784 5781 5781 5781 5779 5778 5776 5775 5773 5772 5771 5770 5770 5769 5768 5766 5765 5765 5765 5765
5805 5803 5805 5803 5804 5799 5798 5798 5800 5799 5798 5795 5794 5793 5794 5793 5793 5792 5792 5790 5789 5787 5784 5782 5780 5779 5779 5778 5775 5775 5774 5772 5770 5769 5768 5766 5764 5763 5761 5761 5759 5758 5757 5755 5754 5754 5753 5752 5751
5795 5796 5795 5794 5794 5790 5789 5787 5791 5790 5787 5786 5784 5783 5782 5782 5781 5781 5780 5780 5779 5777 5776 5773 5771 5769 5765 5764 5764 5762 5761 5761 5760 5757 5755 5754 5753 5751 5749 5748 5747 5746 5745 5744 5742 5741 5740 5739 5739
5789 5790 5788 5788 5786 5785 5784 5782 5782 5780 5778 5778 5776 5776 5775 5773 5772 5771 5770 5770 5769 5767 5765 5763 5762 5760 5756 5753 5749 5748 5746 5745 5745 5744 5742 5740 5739 5738 5736 5734 5733 5732 5731 5730 5729 5729 5728 5727 5726
5780 5779 5779 5776 5775 5774 5774 5773 5770 5769 5771 5771 5769 5767 5765 5763 5761 5762 5761 5758 5756 5753 5751 5749 5747 5744 5742 5740 5738 5735 5732 5730 5728 5726 5725 5724 5722 5720 5719 5718 5718 5717 5716 5715 5714 5714 5712 5712 5712
5770 5769 5768 5766 5765 5762 5769 5763 5757 5760 5758 5756 5755 5754 5753 5750 5749 5749 5746 5743 5741 5738 5735 5732 5730 5729 5728 5727 5725 5721 5719 5717 5714 5712 5709 5707 5705 5703 5702 5701 5699 5698 5697 5698 5696 5695 5696 5696 5695
5760 5759 5758 5756 5757 5755 5754 5751 5750 5748 5746 5745 5745 5743 5741 5738 5735 5731 5729 5726 5723 5721 5720 5718 5716 5715 5712 5709 5707 5705 5704 5702 5699 5697 5695 5693 5690 5687 5685 5683 5680 5680 5678 5676 5675 5675 5675 5674 5675
5749 5749 5748 5747 5746 5746 5745 5740 5743 5738 5735 5734 5732 5731 5728 5725 5723 5720 5716 5711 5708 5706 5704 5701 5699 5697 5695 5693 5691 5690 5689 5687 5684 5682 5679 5676 5675 5671 5668 5664 5663 5661 5658 5656 5655 5654 5653 5652 5652
5738 5737 5738 5733 5732 5730 5730 5728 5729 5726 5724 5721 5720 5716 5713 5711 5708 5704 5701 5697 5693 5690 5687 5684 5680 5679 5677 5676 5674 5672 5669 5668 5665 5662 5660 5658 5654 5651 5649 5646 5642 5639 5637 5636 5634 5633 5631 5631 5631
5727 5726 5722 5719 5715 5710 5714 5715 5711 5714 5712 5709 5706 5704 5700 5696 5692 5688 5684 5681 5678 5673 5669 5666 5663 5661 5660 5658 5656 5654 5651 5648 5646 5643 5641 5636 5633 5630 5627 5624 5622 5619 5616 5612 5610 5610 5608 5608 5607
5713 5711 5710 5709 5702 5696 5696 5698 5697 5697 5697 5695 5692 5689 5685 5680 5677 5674 5671 5667 5662 5657 5653 5650 5646 5643 5641 5639 5636 5633 5630 5627 5624 5621 5619 5616 5612 5608 5604 5601 5600 5596 5592 5587 5585 5584 5583 5583 5583
5700 5699 5698 5692 5691 5685 5678 5683 5681 5682 5679 5676 5676 5673 5668 5664 5660 5656 5653 5649 5645 5641 5637 5634 5631 5627 5623 5619 5616 5613 5610 5606 5602 5598 5594 5591 5586 5582 5579 5575 5573 5570 5567 5564 5561 5558 5556 5557 5557